RH
34 31 28 28 29 29 28 26 25 24 24 24 25 25 26 26 29 32 34 38 41 43
31 30 29 30 30 29 28 27 26 27 27 27 26 26 28 32 37 42 46 48 50 51
30 30 30 31 31 30 29 29 29 29 28 28 33 39 41 42 44 47 49 50 52 52
31 32 33 33 32 30 30 30 31 35 40 42 43 44 44 44 45 47 50 52 53 54
35 34 32 30 31 34 38 41 43 45 45 45 44 44 43 45 47 51 53 55 55 56
32 33 37 41 42 43 45 46 47 47 46 47 48 49 49 50 50 51 51 52 52 53
41 42 44 45 47 48 48 49 50 51 53 54 54 53 51 49 50 50 50 49 50 51
44 46 47 48 50 51 51 52 54 55 54 53 51 49 48 47 47 47 49 48 48 47
47 49 50 51 51 52 53 53 53 52 50 49 47 46 46 46 48 49 50 50 49 48
51 51 52 53 54 55 54 52 50 50 48 50 50 48 47 45 43 42 41 40 40 39
55 58 60 60 57 54 52 50 49 49 47 43 42 39 36 32 31 32 33 33 31 30
59 61 61 58 55 52 49 46 44 38 37 34 33 33 33 34 34 34 32 30 29 29
61 63 63 56 50 47 44 39 35 31 29 30 31 33 35 35 34 33 33 33 33 33
66 64 53 47 43 36 34 33 32 33 34 36 38 38 40 42 40 38 35 34 34 35